Location: Newark
(31.4565°N, 75.7559°E)
Time: 18:05:33
(UTC+00:00)

LightSail 2 - Visible Passes

Search period start: 27 January 2020 00:00
Search period end: 06 February 2020 00:00
Orbit: 704 x 719 km, 24.0° (Epoch: 26 January)

Date Brightness Start Highest point End Pass type
(mag) Time Alt. Az. Time Alt. Az. Time Alt. Az.
27 Jan 7.1 13:51:17 10° WSW 13:55:12 22° SSW 13:59:05 10° SE visible
28 Jan 7.0 12:52:36 10° WSW 12:56:51 26° SSW 13:01:06 10° SE visible
28 Jan 7.7 14:39:56 10° SW 14:41:46 12° SSW 14:43:36 10° S visible
29 Jan 7.6 13:40:26 10° SW 13:43:26 16° SSW 13:46:27 10° SSE visible
